This demonstration page uses our WeatherBlox Daily Observations layout. Learn more.

Left ArrowRight Arrow

47.50024, -111.30081

Hourly Observations for May 15, 2019

Temp ( °F °C ) Dew Point ( °F °C ) Humidity (%) Winds ( mph kmh ) Pressure ( in mb ) Visibility ( mi km ) Precip ( " mm )
12:53 am 00:53 Mostly Cloudy 61 16.1 44 6.7 54 54 WNW 12 19 29.73 1007 10 16 0.00 0.00
1:53 am 01:53 Cloudy 58 14.4 44 6.7 60 60 Calm 29.75 1007 10 16 0.00 0.00
2:53 am 02:53 Cloudy 60 15.6 44 6.7 56 56 WNW 6 9 29.75 1008 10 16 0.00 0.00
3:53 am 03:53 Mostly Clear 60 15.6 44 6.7 56 56 E 7 11 29.75 1007 10 16 0.00 0.03
4:53 am 04:53 Partly Cloudy 55 12.8 46 7.8 72 72 S 7 11 29.77 1008 10 16 0.00 0.00
5:53 am 05:53 Sunny 53 11.7 45 7.2 74 74 SW 12 19 29.76 1008 10 16 0.00 0.00
6:53 am 06:53 Sunny 52 11.1 46 7.8 80 80 SW 12 19 29.77 1008 10 16 0.00 0.00
7:53 am 07:53 Sunny 58 14.4 44 6.7 60 60 SW 9 15 29.79 1009 10 16 0.00 0.00
8:53 am 08:53 Sunny 64 17.8 40 4.4 41 41 WSW 17 28 29.78 1008 10 16 0.00 0.00
9:53 am 09:53 Sunny 66 18.9 38 3.3 36 36 W 13 20 29.78 1008 10 16 0.00 0.00
10:53 am 10:53 Sunny 67 19.4 39 3.9 36 36 WSW 13 20 29.78 1009 10 16 0.00 0.00
11:53 am 11:53 Mostly Sunny 69 20.6 39 3.9 33 33 SW 10 17 29.77 1008 10 16 0.00 0.00
12:53 pm 12:53 Sunny 70 21.1 39 3.9 32 32 VRB 5 7 29.77 1008 10 16 0.00 0.00
1:53 pm 13:53 Partly Cloudy 74 23.3 38 3.3 27 27 W 18 30 29.75 1007 10 16 0.00 0.00
2:53 pm 14:53 Mostly Cloudy 73 22.8 33 0.6 23 23 W 10 17 29.74 1007 10 16 0.00 0.00
3:53 pm 15:53 Mostly Cloudy 71 21.7 33 0.6 25 25 VRB 5 7 29.74 1007 10 16 0.00 0.00
4:53 pm 16:53 Cloudy 69 20.6 37 2.8 31 31 WSW 15 24 29.76 1008 10 16 0.00 0.00
5:01 pm 17:01 Cloudy 69 20.6 37 2.8 31 31 WSW 15 24 29.65 1004 10 16 0.00 0.00
5:53 pm 17:53 Mostly Cloudy 68 20 36 2.2 31 31 VRB 7 11 29.76 1008 10 16 0.00 0.00
6:53 pm 18:53 Cloudy 66 18.9 42 5.6 42 42 SSW 5 7 29.77 1008 10 16 0.00 0.00
7:53 pm 19:53 Cloudy 64 17.8 39 3.9 40 40 WSW 3 6 29.76 1008 10 16 0.00 0.00
8:53 pm 20:53 Cloudy 64 17.8 33 0.6 32 32 Calm 29.76 1008 10 16 0.00 0.00
9:53 pm 21:53 Cloudy 62 16.7 38 3.3 41 41 NE 18 30 29.78 1008 10 16 0.00 0.00
10:53 pm 22:53 Cloudy 60 15.6 38 3.3 44 44 ENE 18 30 29.78 1009 10 16 0.00 0.00
11:53 pm 23:53 Cloudy 58 14.4 40 4.4 51 51 ENE 13 20 29.79 1009 10 16 0.00 0.00

Powered by AerisWeather